Regional Weather Roundup
Issued by NWS

Home | Current Version | Previous Version | Graphics & Text | Print | Product List | Glossary On
Versions: 1 2 3 4 5 6 7 8 9 10 11 12 13 14 15 16 17 18 19 20 21 22 23 24 25 26 27 28 29 30 31 32 33 34 35 36 37 38 39 40 41 42 43 44 45 46 47 48 49 50
000
ASUS43 KMKX 020021
RWRWI

WISCONSIN REGIONAL WEATHER ROUNDUP
NATIONAL WEATHER SERVICE MILWAUKEE/SULLIVAN WI
700 PM CDT SAT AUG 01 2015

NOTE: "FAIR" INDICATES FEW OR NO CLOUDS BELOW 12,000 FEET WITH NO
SIGNIFICANT WEATHER AND/OR OBSTRUCTIONS TO VISIBILITY.

WIZ001-002-006>008-014>016-023>028-020100-
NORTHWEST WISCONSIN

CITY           SKY/WX    TMP DP  RH WIND       PRES   REMARKS
SUPERIOR ARPT  MOSUNNY   78  57  48 SW10      29.76F
6HR MIN TEMP:  78; 6HR MAX TEMP:  83;

ASHLAND        SUNNY     78  55  44 SW12G26   29.78F
6HR MIN TEMP:  78; 6HR MAX TEMP:  82;

HAYWARD        MOSUNNY   78  54  43 W5        29.83F
6HR MIN TEMP:  78; 6HR MAX TEMP:  82;

SIREN          MOSUNNY   79  56  45 S5        29.81F HX  80
6HR MIN TEMP:  79; 6HR MAX TEMP:  82;

CUMBERLAND     MOSUNNY   75  61  60 CALM      29.84F
RICE LAKE      MOSUNNY   77  58  51 CALM      29.85F
6HR MIN TEMP:  77; 6HR MAX TEMP:  80;

CHETEK         MOSUNNY   78  60  52 CALM      29.84F HX  80
6HR MIN TEMP:  78; 6HR MAX TEMP:  81;

LADYSMITH      MOSUNNY   78  56  46 SW7       29.86F
6HR MIN TEMP:  76; 6HR MAX TEMP:  80;

EAU CLAIRE     SUNNY     80  60  50 SW8       29.82F HX  81
6HR MIN TEMP:  80; 6HR MAX TEMP:  84;

MENOMONIE      MOSUNNY   81  62  52 S5        29.83F HX  82
6HR MIN TEMP:  79; 6HR MAX TEMP:  85;

NEW RICHMOND   MOSUNNY   81  60  50 S9        29.82F HX  81
6HR MIN TEMP:  80; 6HR MAX TEMP:  84;

OSCEOLA        MOSUNNY   80  60  50 CALM      29.83F HX  81
6HR MIN TEMP:  80; 6HR MAX TEMP:  83;

$$

WIZ003>005-009-010-017-018-020100-
NORTH CENTRAL WISCONSIN

CITY           SKY/WX    TMP DP  RH WIND       PRES   REMARKS
MANITOWISH WTR SUNNY     75  54  48 SW8       29.83F
6HR MIN TEMP:  72; 6HR MAX TEMP:  77;

ARBOR VITAE    SUNNY     77  54  44 W6        29.84F
6HR MIN TEMP:  73; 6HR MAX TEMP:  79;

WOODRUFF       SUNNY     77  54  44 W6        29.84F
6HR MIN TEMP:  73; 6HR MAX TEMP:  79;

RHINELANDER    SUNNY     77  52  41 W12       29.86F
6HR MIN TEMP:  74; 6HR MAX TEMP:  80;

EAGLE RIVER    SUNNY     75  47  37 W9        29.84F
6HR MIN TEMP:  72; 6HR MAX TEMP:  78;

LAND O LAKES   MOSUNNY   75  49  39 W5        29.84F
6HR MIN TEMP:  73; 6HR MAX TEMP:  78;

PHILLIPS       MOSUNNY   75  56  50 W9        29.85F
6HR MIN TEMP:  75; 6HR MAX TEMP:  78;

TOMAHAWK       SUNNY     75  53  46 W6        29.86F
6HR MIN TEMP:  72; 6HR MAX TEMP:  78;

MEDFORD        MOSUNNY   75  58  54 W5        29.87F
6HR MIN TEMP:  74; 6HR MAX TEMP:  78;

MERRILL        NOT AVBL
$$

WIZ029-030-035-036-043>047-020100-
CENTRAL WISCONSIN

CITY           SKY/WX    TMP DP  RH WIND       PRES   REMARKS
WAUSAU         SUNNY     79  53  40 W12       29.85F
6HR MIN TEMP:  79; 6HR MAX TEMP:  83;

MOSINEE        SUNNY     77  52  41 W9        29.88F
MARSHFIELD     SUNNY     76  54  46 W6        29.87F
6HR MIN TEMP:  76; 6HR MAX TEMP:  82;

STEVENS POINT  MOSUNNY   78  54  42 W5        29.87S
6HR MIN TEMP:  76; 6HR MAX TEMP:  80;

WAUPACA        SUNNY     82  48  30 W8        29.85F HX  81
6HR MIN TEMP:  82; 6HR MAX TEMP:  85;

WAUTOMA        SUNNY     85  53  33 W12       29.86F HX  83
6HR MIN TEMP:  82; 6HR MAX TEMP:  87;

WISC RAPIDS    SUNNY     80  52  37 NW8       29.87F HX  80
6HR MIN TEMP:  80; 6HR MAX TEMP:  85;

CAMP DOUGLAS   SUNNY     80  63  55 W8        29.86F HX  81
6HR MIN TEMP:  80; 6HR MAX TEMP:  84;

$$

WIZ011>013-019>022-031-037>040-048>050-020100-
NORTHEAST WISCONSIN

CITY           SKY/WX    TMP DP  RH WIND       PRES   REMARKS
ANTIGO         SUNNY     75  52  44 W10       29.87F
SHAWANO        SUNNY     80  52  37 W8        29.84F HX  80
6HR MIN TEMP:  79; 6HR MAX TEMP:  83;

OCONTO         SUNNY     80  52  37 W9        29.82F HX  80
6HR MIN TEMP:  80; 6HR MAX TEMP:  83;

STURGEON BAY   SUNNY     77  52  41 W6        29.85S
6HR MIN TEMP:  77; 6HR MAX TEMP:  81;

GREEN BAY      SUNNY     79  55  43 W7        29.84F
6HR MIN TEMP:  79; 6HR MAX TEMP:  83;

MANITOWOC      SUNNY     81  50  33 MISG      29.85F HX  80
6HR MIN TEMP:  80; 6HR MAX TEMP:  83;

APPLETON       MOSUNNY   79  48  34 W7        29.86F
CLINTONVILLE   SUNNY     81  46  30 W8        29.84F HX  80
OSHKOSH        SUNNY     81  53  37 W7        29.85F HX  80
6HR MIN TEMP:  80; 6HR MAX TEMP:  84;

$$

WIZ032>034-041-042-053>061-020100-
SOUTHWEST WISCONSIN

CITY           SKY/WX    TMP DP  RH WIND       PRES   REMARKS
LA CROSSE      SUNNY     85  63  47 W6        29.85F HX  86
6HR MIN TEMP:  80; 6HR MAX TEMP:  87;

SPARTA         SUNNY     82  58  42 W3        29.87F HX  82
6HR MIN TEMP:  81; 6HR MAX TEMP:  85;

VIROQUA        SUNNY     80  64  56 W3        29.90F HX  82
6HR MIN TEMP:  78; 6HR MAX TEMP:  82;

BOSCOBEL       SUNNY     86  65  49 W3        29.87F HX  88
6HR MIN TEMP:  86; 6HR MAX TEMP:  90;

PRAIRIE DU CHI MOSUNNY   85  60  43 SW5       29.87F HX  85
6HR MIN TEMP:  82; 6HR MAX TEMP:  89;

PLATTEVILLE    PTSUNNY   83  67  59 W5        29.91F HX  85
6HR MIN TEMP:  83; 6HR MAX TEMP:  86;

$$

WIZ056-057-062-063-064-067-068-020100-
SOUTH CENTRAL WISCONSIN

CITY           SKY/WX    TMP DP  RH WIND       PRES   REMARKS
REEDSBURG      SUNNY     82  62  49 W8        29.87F HX  83
6HR MIN TEMP:  80; 6HR MAX TEMP:  86;

BARABOO/DELLS  SUNNY     83  55  38 W6        29.87F HX  82
6HR MIN TEMP:  80; 6HR MAX TEMP:  86;

LONE ROCK      SUNNY     84  61  45 NW5       29.88F HX  84
6HR MIN TEMP:  82; 6HR MAX TEMP:  87;

MINERAL POINT  SUNNY     82  61  47 W6        29.91F HX  83
MADISON        MOSUNNY   83  58  42 NW5       29.87F HX  83
6HR MIN TEMP:  80; 6HR MAX TEMP:  86;

MIDDLETON      SUNNY     83  58  41 W6        29.89S HX  82
6HR MIN TEMP:  81; 6HR MAX TEMP:  87;

WATERTOWN      SUNNY     81  61  51 W3        29.86F HX  81
6HR MIN TEMP:  77; 6HR MAX TEMP:  83;

MONROE         SUNNY     82  61  47 W9        29.90F HX  83
JANESVILLE     MOSUNNY   84  57  39 W7        29.88F HX  83
$$

WIZ051-052-058>065-066-070>072-020100-
SOUTHEAST WISCONSIN

CITY           SKY/WX    TMP DP  RH WIND       PRES   REMARKS
MILWAUKEE      MOSUNNY   83  57  41 NW8       29.87F HX  82
6HR MIN TEMP:  78; 6HR MAX TEMP:  85;

WAUKESHA       SUNNY     81  57  44 NW3       29.89F HX  81
MILWAUKEE/TIMM SUNNY     81  55  41 NW6       29.88F HX  80
RACINE         SUNNY     77  58  51 S10       29.89F
6HR MIN TEMP:  77; 6HR MAX TEMP:  85;

BURLINGTON     SUNNY     81  59  47 W5        29.88F HX  81
6HR MIN TEMP:  79; 6HR MAX TEMP:  84;

KENOSHA        SUNNY     79  64  60 E7        29.88F HX  81
6HR MIN TEMP:  79; 6HR MAX TEMP:  85;

FOND DU LAC    SUNNY     82  55  39 W6        29.86F HX  81
6HR MIN TEMP:  81; 6HR MAX TEMP:  84;

SHEBOYGAN      SUNNY     80  55  42 NW3       29.85F HX  80
6HR MIN TEMP:  80; 6HR MAX TEMP:  83;

WEST BEND      SUNNY     79  52  38 SW5       29.87F
JUNEAU         SUNNY     79  59  49 CALM      29.87F HX  80
6HR MIN TEMP:  74; 6HR MAX TEMP:  80;

$$

LSZ147-162-020100-
LAKE SUPERIOR

STATION/POSITION TIME  TEMP    WIND        PRES    WAVE
                       AIR SEA DIR/SP/G            HT/PER
                 (UTC) (F)     (DEG/KT/KT) (MB)    (FT/S)
W MID LAKE BUOY  2350   62 54  210/ 10/ 12 1006.7F   1/ 3
DEVILS ISLAND    0000   73     230/ 14/ 17 1006.7F
PORT WING        2300   79     250/ 11/ 14 1008.5F
SAXON HARBOR     2340   81                 1008.1F
$$

LMZ867-665-643>646-020100-
LAKE MICHIGAN

STATION/POSITION TIME  TEMP    WIND        PRES    WAVE
                       AIR SEA DIR/SP/G            HT/PER



USA.gov is the U.S. government's official web portal to all federal, state and local government web resources and services.